Regional Weather Roundup
Issued by NWS Charleston, WV

Home | Current Version | Previous Version | Graphics & Text | Print | Product List | Glossary On
Versions: 1 2 3 4 5 6 7 8 9 10 11 12 13 14 15 16 17 18 19 20 21 22 23 24 25 26 27 28 29 30 31 32 33 34 35 36 37 38 39 40 41 42 43 44 45 46 47 48 49 50
000
ASUS41 KRLX 010810
RWRRLX
West Virginia Regional Weather Roundup
National Weather Service Charleston WV
400 AM EDT WED APR 01 2015

Note: "fair" indicates few or no clouds below 12,000 feet with no
significant weather and/or obstructions to visibility.

WVZ003-010900-
Northern Panhandle of West Virginia

CITY           SKY/WX    TMP DP  RH WIND       PRES   REMARKS
WHEELING       CLEAR     28  23  81 S3        30.02R
$$

WVZ009-010900-
Northwest West Virginia

CITY           SKY/WX    TMP DP  RH WIND       PRES   REMARKS
PARKERSBURG    CLEAR     32  26  78 CALM      30.07S
$$

WVZ006-010900-
Western West Virginia

CITY           SKY/WX    TMP DP  RH WIND       PRES   REMARKS
HUNTINGTON     CLEAR     38  32  79 NE3       30.04S
$$

WVZ015-010900-
West Central West Virginia

CITY           SKY/WX    TMP DP  RH WIND       PRES   REMARKS
CHARLESTON     CLEAR     40  31  70 N3        30.03R
$$

WVZ022-031-010900-
North Central West Virginia

CITY           SKY/WX    TMP DP  RH WIND       PRES   REMARKS
CLARKSBURG     CLEAR     33  27  78 N3        30.01S
MORGANTOWN     CLEAR     32  21  64 CALM      30.02S
$$

WVZ025-035-042-045-010900-
Southern West Virginia

CITY           SKY/WX    TMP DP  RH WIND       PRES   REMARKS
BECKLEY        CLEAR     37  29  72 NW7       29.97R
LOGAN            N/A     39  32  75 CALM      29.97S
BLUEFIELD      CLEAR     42  31  64 W5        29.96S
LEWISBURG      CLEAR     39  31  73 CALM      29.96R
$$

WVZ047-010900-
Northern Mountains of West Virginia

CITY           SKY/WX    TMP DP  RH WIND       PRES   REMARKS
ELKINS         CLEAR     26  23  88 CALM      29.98S
$$

WVZ052-010900-
Eastern Panhandle of West Virginia

CITY           SKY/WX    TMP DP  RH WIND       PRES   REMARKS
MARTINSBURG    CLEAR     38  25  59 NW9       29.98R
PETERSBURG     CLEAR     40  24  54 N8        29.99S
$$


USA.gov is the U.S. government's official web portal to all federal, state and local government web resources and services.